Home > Weather > Worcester > Past weeks

Flag for USA Past Weather in Worcester, Massachusetts, USA — Yesterday and Last 2 Weeks

Now
64 °F

Clear.


Feels Like: 64 °F
Forecast: 58 / 80 °F
Wind: 8 mph from North

Location: Worcester Regional Airport

Current Time: Aug 30, 2016 at 1:14:08 AM

Latest Report: Aug 30, 2016 at 12:54 AM


Visibility: 10 mi

Pressure: 30.18 "Hg

Humidity: 63%

Dew Point: 51 °F

Location of WorcesterLocation

Past Weather in Worcester — Graph

°F

Worcester Temperature Yesterday

Maximum temperature yesterday: 82 °F (at 1:54 PM)
Minimum temperature yesterday: 65 °F (at 11:54 PM)
Average temperature yesterday: 72 °F

High & Low Weather Summary for the Past Weeks

 TemperatureHumidityPressure
High85 °F (Aug 26, 4:54 PM)97% (Aug 20, 4:54 AM)30.32 "Hg (Aug 20, 4:54 AM)
Low54 °F (Aug 23, 5:54 AM)34% (Aug 29, 2:54 PM)29.76 "Hg (Aug 22, 2:54 AM)
Average72 °F68%30.07 "Hg
* Reported Aug 14 11:54 PM — Aug 29 11:54 PM, Worcester, Weather by CustomWeather, © 2016

Note: Actual official high and low records may vary slightly from our data, if they occured in-between our weather recording intervals... More about our weather records

Advertising

Worcester Weather History for the Previous 24 Hours

Scroll right to see more
 ConditionsComfort  
Time TempWeatherWind HumidityBarometerVisibility
11:54 PM
Mon, Aug 29
65 °FClear.8 mph61%30.16 "Hg10 mi
10:54 PM66 °FClear.9 mph59%30.17 "Hg10 mi
9:54 PM68 °FClear.6 mph55%30.17 "Hg10 mi
8:54 PM69 °FClear.8 mph53%30.15 "Hg10 mi
7:54 PM72 °FSunny.7 mph48%30.14 "Hg10 mi
6:54 PM75 °FSunny.9 mph43%30.12 "Hg10 mi
5:54 PM78 °FSunny.9 mph42%30.11 "Hg10 mi
4:54 PM80 °FPassing clouds.12 mph41%30.09 "Hg10 mi
3:54 PM81 °FSunny.15 mph38%30.08 "Hg10 mi
2:54 PM82 °FPassing clouds.17 mph34%30.07 "Hg10 mi
1:54 PM82 °FSunny.14 mph40%30.07 "Hg10 mi
12:54 PM81 °FPassing clouds.18 mph41%30.07 "Hg10 mi
11:54 AM80 °FPassing clouds.14 mph51%30.07 "Hg10 mi
10:54 AM76 °FSunny.16 mph67%30.08 "Hg10 mi
9:54 AM72 °FSunny.14 mph76%30.09 "Hg10 mi
8:54 AM69 °FSunny.14 mph81%30.09 "Hg10 mi
7:54 AM68 °FSunny.N/A84%30.10 "Hg10 mi
6:54 AM67 °FClear.14 mph87%30.09 "Hg10 mi
5:54 AM67 °FClear.14 mph87%30.08 "Hg10 mi
4:54 AM67 °FPassing clouds.15 mph81%30.09 "Hg10 mi
3:54 AM66 °FPassing clouds.13 mph81%30.10 "Hg10 mi
2:54 AM67 °FPassing clouds.15 mph76%30.12 "Hg10 mi
1:54 AM66 °FClear.15 mph78%30.12 "Hg10 mi
Weather by CustomWeather, © 2016

See weather overviewHow to use our weather pages